Location: Waco, TX
(31.5480°N, 97.1670°W)
Time: 20:27:33
(UTC-05:00)

ISS - Pass Details

Date: 10 August 2018
Orbit: 402 x 409 km, 51.6° (Epoch: 15 August)

Event Time Altitude Azimuth Distance (km) Brightness Sun altitude
Rises 22:26:34 0° 288° (WNW) 2,319 1.1 -25.1°
Enters shadow 22:30:12 10° 246° (WSW) 1,475 -0.7 -25.7°
Reaches altitude 10° 22:30:30 10° 240° (WSW) 1,457 - -25.7°
Maximum altitude 22:30:49 10° 235° (SW) 1,451 - -25.8°
Drops below altitude 10° 22:31:07 10° 230° (SW) 1,456 - -25.8°
Sets 22:35:04 0° 182° (S) 2,312 - -26.5°
